ブロートン彗星

513P/Broughton (2025)

English version
Home page
Updated on December 5, 2025

---------------------------------------------------------------------

・ プロフィール

符号 513P/2025 S1
検出日 2025年9月24日
検出光度 19.6等
検出者 G. J. Leonard (Mount Lemmon Survey)

・ 写真集

・ 軌道要素

                    Epoch = 2025 June 14.0 TT
     T = 2025 June 13.73532 TT        Peri. = 304.85715
     e = 0.5516916                    Node  =  56.99771 2000.0
     q = 3.2535746 AU                 Incl. =  21.38525
       a =  7.2574472 AU   n = 0.05041134   P =  19.55 years

・ 光度変化

        m1 = 3.5 + 5 logΔ + 25.0 log r

---------------------------------------------------------------------

軌道要素は、CBET 5616に掲載されたものです。
光度グラフはComet for Windowsで作成したものです。

---------------------------------------------------------------------

Copyright(C) Seiichi Yoshida (comet@aerith.net). All rights reserved.